Total_Precipitation_Accumulation
0.05 0.02 0.02 0.02 0.03 0.05 0.04 0.05 0.06 0.08 0.07 0.07 0.06 0.05 0.05 0.05 0.05 0.04 0.04 0.05 0.07 0.11 0.16 0.18 0.20 0.22 0.25 0.18 0.09 0.06 0.06 0.05 0.06 0.08 0.10 0.11 0.13 0.14 0.15 0.11 0.12 0.09 0.07
0.05 0.02 0.02 0.01 0.02 0.04 0.04 0.05 0.06 0.07 0.07 0.06 0.06 0.05 0.05 0.05 0.06 0.06 0.06 0.06 0.09 0.11 0.12 0.14 0.16 0.17 0.15 0.10 0.06 0.05 0.05 0.06 0.12 0.19 0.25 0.26 0.24 0.21 0.23 0.25 0.24 0.15 0.08
0.04 0.02 0.02 0.01 0.02 0.03 0.04 0.06 0.07 0.08 0.08 0.08 0.07 0.06 0.06 0.06 0.07 0.07 0.07 0.07 0.11 0.13 0.12 0.11 0.10 0.10 0.08 0.05 0.05 0.05 0.07 0.10 0.20 0.34 0.59 0.74 0.57 0.42 0.31 0.27 0.24 0.16 0.13
0.03 0.02 0.02 0.02 0.02 0.02 0.03 0.05 0.06 0.07 0.07 0.07 0.06 0.05 0.06 0.06 0.07 0.07 0.08 0.10 0.15 0.17 0.15 0.11 0.08 0.06 0.04 0.04 0.04 0.06 0.09 0.15 0.26 0.49 1.06 0.96 0.91 0.71 0.38 0.27 0.22 0.23 0.30
0.03 0.01 0.01 0.02 0.02 0.02 0.03 0.03 0.05 0.06 0.06 0.06 0.06 0.06 0.06 0.06 0.07 0.08 0.12 0.16 0.17 0.18 0.19 0.16 0.12 0.07 0.04 0.03 0.04 0.06 0.10 0.17 0.32 0.61 1.02 1.27 1.39 0.85 0.48 0.37 0.32 0.31 0.38
0.04 0.01 0.01 0.02 0.03 0.03 0.03 0.03 0.05 0.07 0.06 0.07 0.06 0.07 0.08 0.08 0.08 0.12 0.20 0.25 0.23 0.21 0.24 0.23 0.19 0.12 0.06 0.04 0.04 0.07 0.11 0.19 0.33 0.61 0.97 1.49 1.33 0.81 0.56 0.46 0.41 0.40 0.44
0.05 0.02 0.02 0.04 0.05 0.04 0.03 0.04 0.06 0.07 0.09 0.11 0.12 0.11 0.11 0.10 0.12 0.17 0.25 0.26 0.26 0.25 0.26 0.22 0.16 0.09 0.07 0.07 0.07 0.08 0.15 0.22 0.33 0.65 0.95 1.33 1.13 0.67 0.50 0.42 0.38 0.38 0.43
0.07 0.03 0.03 0.05 0.07 0.06 0.07 0.08 0.10 0.10 0.12 0.14 0.15 0.14 0.11 0.10 0.13 0.19 0.22 0.25 0.26 0.23 0.19 0.15 0.11 0.10 0.10 0.11 0.11 0.13 0.17 0.18 0.25 0.51 0.81 0.90 0.69 0.45 0.35 0.32 0.28 0.26 0.28
0.12 0.12 0.11 0.11 0.09 0.11 0.14 0.17 0.18 0.17 0.16 0.16 0.15 0.13 0.11 0.12 0.15 0.18 0.21 0.26 0.26 0.18 0.14 0.12 0.10 0.08 0.08 0.08 0.08 0.09 0.11 0.15 0.21 0.38 0.74 0.77 0.46 0.35 0.32 0.28 0.21 0.20 0.22
0.28 0.30 0.30 0.24 0.19 0.17 0.19 0.22 0.24 0.24 0.23 0.20 0.16 0.13 0.14 0.17 0.19 0.21 0.18 0.20 0.19 0.14 0.10 0.08 0.06 0.05 0.04 0.03 0.03 0.05 0.09 0.10 0.14 0.32 0.59 0.60 0.44 0.43 0.40 0.33 0.24 0.20 0.21
0.61 0.62 0.56 0.47 0.34 0.31 0.30 0.26 0.28 0.29 0.28 0.24 0.21 0.19 0.22 0.26 0.28 0.30 0.24 0.25 0.18 0.13 0.10 0.08 0.06 0.06 0.04 0.04 0.04 0.05 0.06 0.07 0.18 0.32 0.56 0.54 0.55 0.56 0.53 0.46 0.36 0.29 0.25
0.86 0.82 0.63 0.62 0.58 0.53 0.42 0.40 0.41 0.35 0.31 0.28 0.34 0.30 0.35 0.51 0.59 0.53 0.49 0.36 0.28 0.21 0.16 0.12 0.11 0.09 0.05 0.07 0.07 0.06 0.06 0.07 0.16 0.28 0.45 0.50 0.58 0.66 0.63 0.55 0.44 0.36 0.32
0.76 0.71 0.68 0.74 0.71 0.70 0.71 0.77 0.70 0.65 0.61 0.51 0.59 0.57 0.60 0.64 0.61 0.62 0.59 0.46 0.38 0.34 0.33 0.32 0.21 0.17 0.14 0.15 0.15 0.11 0.09 0.10 0.14 0.22 0.38 0.47 0.52 0.64 0.71 0.63 0.53 0.48 0.41
1.03 0.89 0.77 0.72 0.74 0.82 0.88 0.99 1.03 1.01 0.95 0.85 0.80 0.75 0.82 0.88 0.85 0.74 0.79 0.75 0.71 0.65 0.64 0.59 0.48 0.38 0.32 0.28 0.23 0.23 0.20 0.18 0.20 0.27 0.35 0.41 0.46 0.60 0.73 0.72 0.63 0.58 0.51
1.48 1.29 1.06 1.05 0.95 1.00 1.14 1.19 1.07 1.10 1.13 1.19 1.14 1.03 1.09 1.04 1.04 1.12 1.08 1.13 1.06 1.07 1.00 0.88 0.72 0.65 0.57 0.50 0.42 0.36 0.33 0.30 0.31 0.40 0.50 0.53 0.51 0.58 0.76 0.82 0.77 0.70 0.67
1.76 1.56 1.37 1.27 1.28 1.29 1.43 1.51 1.40 1.30 1.31 1.36 1.41 1.29 1.33 1.33 1.33 1.37 1.40 1.44 1.33 1.28 1.28 1.17 0.97 0.88 0.80 0.70 0.62 0.55 0.49 0.47 0.47 0.47 0.66 0.68 0.62 0.63 0.78 0.94 0.97 0.99 1.01
1.95 1.77 1.74 1.60 1.73 1.77 1.90 1.94 1.96 1.88 1.86 1.77 1.71 1.73 1.67 1.63 1.63 1.58 1.73 1.83 1.68 1.61 1.61 1.46 1.30 1.10 1.06 1.01 0.94 0.85 0.79 0.74 0.73 0.73 0.82 0.90 0.89 0.81 0.82 0.94 1.04 1.11 1.15
1.84 1.85 1.90 1.75 1.81 2.01 2.02 1.97 2.04 2.21 2.23 2.16 2.06 2.09 1.96 1.92 1.97 2.06 2.03 1.98 1.92 1.86 1.83 1.86 1.66 1.43 1.37 1.44 1.34 1.15 1.01 1.01 1.03 1.00 0.99 1.05 1.12 1.06 1.02 0.94 0.98 1.08 1.13
1.76 1.65 1.74 1.95 1.92 2.05 2.09 2.06 2.16 2.40 2.53 2.56 2.52 2.44 2.33 2.32 2.35 2.46 2.56 2.41 2.23 2.11 2.09 1.98 1.91 1.77 1.72 1.69 1.49 1.29 1.09 1.04 1.10 1.11 1.08 1.11 1.19 1.23 1.19 1.03 1.02 1.14 1.19
1.72 1.76 1.77 1.97 1.98 2.14 2.26 2.17 2.25 2.34 2.45 2.60 2.74 2.84 2.98 3.03 3.00 2.95 2.84 2.70 2.52 2.41 2.35 2.24 2.17 2.07 1.89 1.70 1.40 1.25 1.08 0.98 0.99 1.03 1.04 1.06 1.08 1.11 1.12 1.07 1.06 1.03 1.05
1.88 1.92 1.87 1.88 2.10 2.20 2.33 2.45 2.67 2.68 2.68 2.91 3.22 3.39 3.60 3.69 3.52 3.46 3.34 3.15 2.94 2.72 2.57 2.35 2.21 2.11 1.91 1.68 1.48 1.29 1.06 0.89 0.88 0.90 0.88 0.88 0.89 0.87 0.89 0.95 1.02 0.97 0.90
2.00 1.99 2.06 2.19 2.28 2.42 2.76 3.18 3.57 3.85 4.02 4.11 4.28 4.34 4.26 4.13 4.01 3.90 3.79 3.55 3.28 3.03 2.78 2.54 2.26 2.08 1.85 1.64 1.54 1.49 1.27 1.04 0.82 0.67 0.66 0.64 0.61 0.59 0.60 0.65 0.70 0.72 0.71
1.89 2.07 2.15 2.45 2.78 3.08 3.55 4.10 4.49 4.85 5.09 5.02 4.84 4.71 4.49 4.29 4.10 3.78 3.58 3.50 3.27 2.92 2.67 2.46 2.22 2.02 1.80 1.59 1.43 1.43 1.33 1.15 0.95 0.79 0.66 0.57 0.53 0.52 0.50 0.53 0.56 0.55 0.53
1.66 1.94 2.21 2.54 3.05 3.74 4.41 4.98 5.39 5.57 5.57 5.48 5.23 4.86 4.46 4.15 3.84 3.51 3.22 2.97 2.76 2.49 2.26 2.10 1.98 1.86 1.74 1.57 1.42 1.21 1.02 0.87 0.88 0.86 0.75 0.63 0.56 0.53 0.47 0.43 0.45 0.47 0.46
1.44 1.75 2.13 2.60 3.23 3.86 4.51 5.07 5.49 5.62 5.51 5.27 4.85 4.37 3.88 3.42 3.07 2.79 2.51 2.24 2.02 1.84 1.66 1.50 1.46 1.55 1.59 1.53 1.47 1.37 1.19 0.98 0.84 0.80 0.79 0.72 0.66 0.61 0.52 0.44 0.39 0.39 0.38
1.28 1.61 1.97 2.40 2.94 3.44 3.84 4.34 4.64 4.80 4.73 4.42 3.95 3.39 2.95 2.63 2.34 2.11 1.86 1.64 1.46 1.29 1.15 1.09 1.09 1.14 1.24 1.29 1.29 1.27 1.23 1.15 1.02 0.90 0.87 0.83 0.79 0.74 0.65 0.56 0.49 0.44 0.41